Other Surface Observations
Issued by NWS

Home | Current Version | Previous Version | Text Only | Print | Product List | Glossary On
Versions: 1 2 3 4 5 6 7 8 9 10 11 12 13 14 15 16 17 18 19 20 21 22 23 24 25 26 27 28 29 30 31 32 33 34 35 36 37 38 39 40 41 42 43 44 45 46 47 48 49 50
827
SXUS52 KTAE 270018
OSOTAE
OSOTAE
North Florida/South Alabama/Southwest Georgia Weather Roundup
National Weather Service Tallahassee Florida
800 PM EDT MON SEP 26 2016

Note: "fair" indicates few or no clouds below 12,000 feet with no
significant weather and/or obstructions to visibility.

!FLZ017-115-028-034-025-270100
...North Florida...

CITY           SKY/WX    TMP DP  RH WIND       PRES   REMARKS
TALLAHASSEE    LGT RAIN  76  74  93 NW3       29.96S
APALACHICOLA   PTCLDY    72  72 100 CALM      29.95R
PERRY          CLEAR     77  69  76 CALM      29.95S
CROSS CITY     MOCLDY    79  73  83 CALM      29.94R
JACKSONVILLE   MOCLDY    77  73  87 NE6       29.95S
$$

!FLZ112-006-005-002-011-270100
...Florida Panhandle...

CITY           SKY/WX    TMP DP  RH WIND       PRES   REMARKS
MARIANNA       PTCLDY    79  74  84 CALM      29.97R
BONIFAY        FAIR      74  68  81 VRB3      29.99R
PANAMA CITY NW NOT AVBL
TYNDALL AFB    MOCLDY    79  72  78 NE5       29.96R
TYND DRONE APT FAIR      77  72  83 NE5       29.96S
DE FUNIAK SPR  LGT RAIN  71  69  94 N6        29.98F
EGLIN AFB      MOCLDY    75  68  78 N7        29.97R
DESTIN         PTCLDY    80  71  74 NE7       29.96R
HURLBURT       LGT RAIN  77  72  83 NE9       29.95R
CRESTVIEW      LGT RAIN  73  70  90 VRB3      30.01R
PENSACOLA      CLEAR     76  73  91 NE5       29.96R
$$

!ALZ063-066-270100
...South Alabama...

CITY           SKY/WX    TMP DP  RH WIND       PRES   REMARKS
DOTHAN         CLEAR     78  71  79 CALM      30.01R
OZARK CAIRNS   CLOUDY    77  72  84 SW9       29.98R
FT RUCKER HELI PTCLDY    76  72  87 CALM      29.96R
RUCKER HELI 3  NOT AVBL
RUCKER HELI 2  NOT AVBL
FLORALA APT    NOT AVBL
ANDALUSIA      MOCLDY    77  72  84 S6        29.98R
TROY           PTCLDY    78  72  81 CALM      29.98R
EUFALA         FAIR      80  66  62 S3        29.96R
MOBILE         CLOUDY    74  72  93 CALM      29.97R
$$

!GAZ120>161-270100
...Southwest and South Central Georgia...

CITY           SKY/WX    TMP DP  RH WIND       PRES   REMARKS
THOMASVILLE    MOCLDY    75  75 100 CALM      29.98S
BAINBRIDGE     CLOUDY    79  68  69 CALM      29.97R
MOODY AFB      PTCLDY    79  68  68 W5        29.97R
VALDOSTA       MOCLDY    75  73  93 CALM      29.97R
MOULTRIE       PTCLDY    73  72  94 NE6       29.99S
BLAKELY        PTCLDY    79  70  73 CALM      29.98R
ALBANY         CLEAR     78  70  76 CALM      29.99R
TIFTON         DRIZZLE   74  70  87 E3        29.99R
FITZGERALD     FAIR      79  73  81 SE3       30.01R
CORDELE        FAIR      84  69  59 E6        29.99R
AMERICUS       MOCLDY    81  64  57 E3        30.00R
HOMERVILLE     FAIR      75  72  88 E5        29.97F
$$

!GMZ750-755-770-775-270100
...Coastal and Buoy Obs...

STATION/POSITION TIME  TEMP    WIND        PRES    VSBY  WAVE
                       AIR SEA DIR/SP/G                  HT/PER
                 (UTC) (F)     (DEG/KT/KT) (MB)    (MI)  (FT/S)
KEATON BEACH     0000   79     330/  3/  4 1014.0R
CEDAR KEY        0000   84     270/  7/  9 1014.2R
C TOWER          0000   81     180/  2/  2 1015.1R
APALACHICOLA BUO 2350   81 86   30/ 10/ 16 1014.1R         1/ 3
PANAMA CITY BUOY 2350   83 88              1014.2R         1
MOBILE BUOY      0000   83 86   40/  4/  6 1013.6R
ORANGE BCH AL BU 2350   82 86  150/  2/  2 1014.2R         1/ 3
$$




USA.gov is the U.S. government's official web portal to all federal, state and local government web resources and services.